Previsão horária em Cedar Hill

Hoje, 2 Agosto, Segunda-feira

Tempo Temperatura Precipitação Vento Pressão Humidade
00:00 +26°C° 3.3 mm 3 m/s 742 mmHg 90%
01:00 +26°C° 0.1 mm 2 m/s 742 mmHg 89%
02:00 +26°C° 0.1 mm 2 m/s 742 mmHg 89%
03:00 +26°C° 0.1 mm 2 m/s 742 mmHg 88%
04:00 +26°C° 0.2 mm 2 m/s 742 mmHg 88%
05:00 +25°C° 0.2 mm 2 m/s 742 mmHg 88%
06:00 +25°C° 0.2 mm 2 m/s 742 mmHg 88%
07:00 +26°C° 0.1 mm 2 m/s 743 mmHg 84%
08:00 +26°C° 0.1 mm 3 m/s 743 mmHg 79%
09:00 +27°C° 0.1 mm 3 m/s 743 mmHg 74%
10:00 +27°C° 0 mm 3 m/s 743 mmHg 70%
11:00 +28°C° 0 mm 3 m/s 743 mmHg 66%
12:00 +29°C° 0 mm 3 m/s 742 mmHg 62%
13:00 +30°C° 0 mm 3 m/s 742 mmHg 57%
14:00 +33°C° 0 mm 4 m/s 741 mmHg 52%
15:00 +34°C° 0 mm 4 m/s 741 mmHg 46%
16:00 +33°C° 0 mm 3 m/s 740 mmHg 49%
17:00 +33°C° 0 mm 3 m/s 740 mmHg 52%
18:00 +31°C° 0 mm 2 m/s 740 mmHg 55%
19:00 +30°C° 0.1 mm 2 m/s 740 mmHg 60%
20:00 +29°C° 0.1 mm 2 m/s 741 mmHg 64%
21:00 +28°C° 0.1 mm 2 m/s 741 mmHg 68%
22:00 +28°C° 0 mm 2 m/s 741 mmHg 72%
23:00 +27°C° 0 mm 2 m/s 741 mmHg 75%

Amanhã, 3 Agosto, Terça-feira

Tempo Temperatura Precipitação Vento Pressão Humidade
00:00 +26°C° 0 mm 2 m/s 741 mmHg 79%
01:00 +26°C° 0 mm 2 m/s 741 mmHg 80%
02:00 +26°C° 0 mm 2 m/s 741 mmHg 82%
03:00 +25°C° 0 mm 2 m/s 741 mmHg 84%
04:00 +25°C° 0 mm 2 m/s 741 mmHg 85%
05:00 +25°C° 0 mm 2 m/s 741 mmHg 87%
06:00 +24°C° 0 mm 2 m/s 741 mmHg 88%
07:00 +25°C° 0 mm 2 m/s 742 mmHg 82%
08:00 +27°C° 0 mm 2 m/s 742 mmHg 76%
09:00 +28°C° 0 mm 2 m/s 742 mmHg 71%
10:00 +29°C° 0 mm 3 m/s 742 mmHg 63%
11:00 +31°C° 0 mm 3 m/s 742 mmHg 55%
12:00 +33°C° 0 mm 3 m/s 742 mmHg 47%
13:00 +33°C° 0 mm 3 m/s 741 mmHg 45%
14:00 +34°C° 0 mm 3 m/s 741 mmHg 43%
15:00 +34°C° 0 mm 3 m/s 740 mmHg 41%
16:00 +33°C° 0 mm 3 m/s 740 mmHg 44%
17:00 +31°C° 0 mm 3 m/s 740 mmHg 47%
18:00 +31°C° 0 mm 3 m/s 740 mmHg 50%
19:00 +30°C° 0 mm 3 m/s 741 mmHg 52%
20:00 +29°C° 0 mm 3 m/s 741 mmHg 53%
21:00 +29°C° 0 mm 3 m/s 741 mmHg 55%
22:00 +28°C° 0 mm 3 m/s 741 mmHg 59%
23:00 +27°C° 0 mm 3 m/s 741 mmHg 62%

Depois de amanhã, 4 Agosto, Quarta-feira

Tempo Temperatura Precipitação Vento Pressão Humidade
00:00 +26°C° 0 mm 2 m/s 741 mmHg 66%
01:00 +26°C° 0 mm 2 m/s 741 mmHg 67%
02:00 +26°C° 0 mm 2 m/s 741 mmHg 69%
03:00 +25°C° 0 mm 2 m/s 741 mmHg 70%
04:00 +25°C° 0 mm 2 m/s 741 mmHg 71%
05:00 +25°C° 0 mm 2 m/s 742 mmHg 72%
06:00 +24°C° 0 mm 2 m/s 742 mmHg 73%
07:00 +26°C° 0 mm 2 m/s 742 mmHg 69%
08:00 +27°C° 0 mm 2 m/s 742 mmHg 64%
09:00 +29°C° 0 mm 2 m/s 743 mmHg 60%
10:00 +30°C° 0 mm 2 m/s 743 mmHg 54%
11:00 +32°C° 0 mm 2 m/s 743 mmHg 49%
12:00 +34°C° 0 mm 2 m/s 743 mmHg 43%
13:00 +35°C° 0 mm 2 m/s 742 mmHg 39%
14:00 +35°C° 0 mm 2 m/s 742 mmHg 35%
15:00 +36°C° 0 mm 2 m/s 741 mmHg 32%
16:00 +35°C° 0 mm 3 m/s 741 mmHg 35%
17:00 +35°C° 0 mm 3 m/s 741 mmHg 38%
18:00 +34°C° 0 mm 4 m/s 741 mmHg 41%
19:00 +33°C° 0 mm 3 m/s 741 mmHg 44%
20:00 +30°C° 0 mm 3 m/s 742 mmHg 47%
21:00 +29°C° 0 mm 2 m/s 742 mmHg 50%
22:00 +28°C° 0 mm 2 m/s 742 mmHg 52%
23:00 +28°C° 0 mm 2 m/s 742 mmHg 53%

5 Agosto, Quinta-feira

Tempo Temperatura Precipitação Vento Pressão Humidade
00:00 +27°C° 0 mm 2 m/s 742 mmHg 55%
01:00 +27°C° 0 mm 2 m/s 742 mmHg 57%
02:00 +26°C° 0 mm 2 m/s 742 mmHg 59%
03:00 +26°C° 0 mm 2 m/s 742 mmHg 61%
04:00 +25°C° 0 mm 2 m/s 742 mmHg 61%
05:00 +25°C° 0 mm 2 m/s 742 mmHg 62%
06:00 +25°C° 0 mm 2 m/s 743 mmHg 63%
07:00 +26°C° 0 mm 2 m/s 743 mmHg 57%
08:00 +28°C° 0 mm 2 m/s 743 mmHg 52%
09:00 +30°C° 0 mm 2 m/s 743 mmHg 46%
10:00 +31°C° 0 mm 2 m/s 743 mmHg 42%
11:00 +34°C° 0 mm 2 m/s 743 mmHg 39%
12:00 +35°C° 0 mm 2 m/s 743 mmHg 35%
13:00 +36°C° 0 mm 2 m/s 742 mmHg 33%
14:00 +36°C° 0 mm 2 m/s 742 mmHg 32%
15:00 +37°C° 0 mm 2 m/s 741 mmHg 30%
16:00 +36°C° 0 mm 2 m/s 741 mmHg 32%
17:00 +36°C° 0 mm 2 m/s 741 mmHg 34%
18:00 +36°C° 0 mm 3 m/s 741 mmHg 35%
19:00 +34°C° 0 mm 3 m/s 741 mmHg 38%
20:00 +33°C° 0 mm 3 m/s 741 mmHg 41%
21:00 +30°C° 0 mm 3 m/s 741 mmHg 44%
22:00 +30°C° 0 mm 3 m/s 741 mmHg 47%
23:00 +29°C° 0 mm 3 m/s 741 mmHg 50%

6 Agosto, Sexta-feira

Tempo Temperatura Precipitação Vento Pressão Humidade
00:00 +28°C° 0 mm 3 m/s 741 mmHg 53%
01:00 +28°C° 0 mm 4 m/s 741 mmHg 58%
02:00 +27°C° 0 mm 4 m/s 741 mmHg 62%
03:00 +27°C° 0 mm 4 m/s 741 mmHg 66%
04:00 +27°C° 0 mm 4 m/s 741 mmHg 69%
05:00 +26°C° 0 mm 3 m/s 741 mmHg 72%
06:00 +26°C° 0 mm 3 m/s 741 mmHg 75%
07:00 +28°C° 0 mm 4 m/s 741 mmHg 69%
08:00 +30°C° 0 mm 4 m/s 741 mmHg 63%
09:00 +33°C° 0 mm 5 m/s 741 mmHg 57%
10:00 +34°C° 0 mm 5 m/s 741 mmHg 52%
11:00 +36°C° 0 mm 5 m/s 741 mmHg 47%
12:00 +39°C° 0 mm 5 m/s 741 mmHg 41%
13:00 +39°C° 0 mm 5 m/s 740 mmHg 38%
14:00 +40°C° 0 mm 4 m/s 740 mmHg 36%
15:00 +41°C° 0 mm 4 m/s 739 mmHg 33%
16:00 +40°C° 0 mm 5 m/s 739 mmHg 35%
17:00 +40°C° 0 mm 5 m/s 739 mmHg 36%
18:00 +39°C° 0 mm 5 m/s 739 mmHg 38%
19:00 +36°C° 0 mm 5 m/s 739 mmHg 41%
20:00 +35°C° 0 mm 5 m/s 739 mmHg 45%
21:00 +33°C° 0 mm 5 m/s 739 mmHg 49%
22:00 +33°C° 0 mm 5 m/s 739 mmHg 50%
23:00 +32°C° 0 mm 5 m/s 739 mmHg 52%

7 Agosto, Sábado

Tempo Temperatura Precipitação Vento Pressão Humidade
00:00 +30°C° 0 mm 6 m/s 739 mmHg 53%
01:00 +30°C° 0 mm 6 m/s 739 mmHg 56%
02:00 +29°C° 0 mm 6 m/s 739 mmHg 60%
03:00 +28°C° 0 mm 6 m/s 739 mmHg 63%
04:00 +28°C° 0 mm 5 m/s 739 mmHg 67%
05:00 +28°C° 0 mm 5 m/s 740 mmHg 71%
06:00 +28°C° 0 mm 5 m/s 740 mmHg 74%
07:00 +29°C° 0 mm 6 m/s 740 mmHg 68%
08:00 +30°C° 0 mm 6 m/s 740 mmHg 61%
09:00 +33°C° 0 mm 6 m/s 741 mmHg 54%
10:00 +35°C° 0 mm 6 m/s 741 mmHg 49%
11:00 +36°C° 0 mm 5 m/s 740 mmHg 43%
12:00 +39°C° 0 mm 5 m/s 740 mmHg 37%
13:00 +40°C° 0 mm 5 m/s 740 mmHg 35%
14:00 +40°C° 0 mm 5 m/s 739 mmHg 33%
15:00 +41°C° 0 mm 5 m/s 739 mmHg 31%
16:00 +40°C° 0 mm 6 m/s 739 mmHg 33%
17:00 +39°C° 0 mm 6 m/s 739 mmHg 35%
18:00 +39°C° 0 mm 6 m/s 739 mmHg 37%
19:00 +36°C° 0 mm 6 m/s 739 mmHg 40%
20:00 +35°C° 0 mm 5 m/s 739 mmHg 44%
21:00 +34°C° 0 mm 5 m/s 739 mmHg 48%
22:00 +33°C° 0 mm 6 m/s 739 mmHg 51%
23:00 +32°C° 0 mm 6 m/s 739 mmHg 54%
Mostrar mais

Necessitamos do seu Consentimento

A Meteoprog e os seus Fornecedores de Serviços podem armazenar e aceder a dados pessoais como cookies, identificadores do dispositivo ou outras tecnologias semelhantes existentes no seu dispositivo e processar estes dados para personalizar conteúdos e anúncios, assim como funcionalidades nas redes sociais e análise de tráfego.

  • Armazenar e/ou aceder a informações no seu dispositivo

    Os cookies, identificadores do dispositivo ou outras informações podem ser armazenados ou acedidos no seu dispositivo, para os fins acima indicados.

  • Anúncios e conteúdos personalizados, medição de anúncios e conteúdos, dados sobre o público-alvo e desenvolvimento de produtos

    Os anúncios e os conteúdos podem ser personalizados com base num perfil. Podem ser adicionados dados adicionais para uma maior personalização dos anúncios e dos conteúdos. A eficácia dos anúncios e dos conteúdos pode ser medida. Podem ser obtidas informações sobre o público que visualizou os anúncios e os conteúdos. Estes dados podem ser usados para desenvolver ou melhorar sistemas, softwares ou a experiência do utilizador.

Ao clicar em "Eu concordo”, permitirá o uso de cookies, identificadores do dispositivo e web beacons mencionados ou outras tecnologias semelhantes. As configurações do navegador do seu dispositivo podem ser alteradas.

Para certos fins, podem ser invocados interesses legítimos ao invés de consentimento. Pode ler mais informação sobre este assunto na nossa Política de Privacidade e Cookies.